Location: D�nning
(49.2479°N, 12.8491°E)
Time: 08:46:31
(UTC+00:00)

Cosmos 990 Rocket - Pass Details

Date: 18 September 2020
Orbit: 746 x 769 km, 74.0° (Epoch: 27 October)

Event Time Altitude Azimuth Distance (km) Brightness Sun altitude
Rises 17:57:46 0° 200° (SSW) 3,179 7.3 -7.8°
Reaches altitude 10° 18:00:07 10° 201° (SSW) 2,258 6.6 -8.2°
Maximum altitude 18:05:14 88° 112° (ESE) 755 4.0 -9.0°
Drops below altitude 10° 18:10:24 10° 24° (NNE) 2,278 6.4 -9.8°
Sets 18:12:47 0° 24° (NNE) 3,208 7.1 -10.2°
